Weather History for KICT - December, 2014

Change the Weather History Date:

Friday, December 19, 2014

  Actual Average Record
Temperature  
Mean Temperature 35 °F 33 °F  
Max Temperature 38 °F 42 °F 67 °F (1966)
Min Temperature 31 °F 23 °F -8 °F (1983)
Degree Days  
Heating Degree Days 30 32  
Month to date heating degree days 458 572  
Since 1 July heating degree days 1338 1448  
Cooling Degree Days 0 0  
Month to date cooling degree days 0 0  
Year to date cooling degree days 1849 1686  
Moisture  
Dew Point 31 °F    
Average Humidity 87    
Maximum Humidity 92    
Minimum Humidity 82    
Precipitation  
Precipitation 0.00 in 0.04 in 1.89 in (2011)
Month to date precipitation 1.12 0.80  
Year to date precipitation 25.43 32.24  
Snow  
Snow 0.00 in 0.20 in 2.40 in (1973)
Month to date snowfall 2.7 2.6  
Since 1 July snowfall 4.5 4.0  
Snow Depth 1.00 in    
Sea Level Pressure  
Sea Level Pressure 30.23 in    
Wind  
Wind Speed 5 mph (SSE)    
Max Wind Speed 9 mph    
Max Gust Speed 11 mph    
Visibility 6 miles    
Events      
T = Trace of Precipitation, MM = Missing Value Source: NWS Daily Summary

Daily Weather History Graph

Daily Weather History Graph

Search for Another Location

Airport or City:

Trip Planner

Search our weather history database for the weather conditions in past years. The results will help you decide how hot, cold, wet, or windy it might be!

Date:

Astronomy

Dec. 19, 2014 Rise Set
Actual Time 7:40 AM CST 5:13 PM CST
Civil Twilight 7:10 AM CST 5:43 PM CST
Nautical Twilight 6:37 AM CST 6:16 PM CST
Astronomical Twilight 6:05 AM CST 6:47 PM CST
Moon 4:58 AM CST (12/19) 3:35 PM CST (12/19)
Length of Visible Light 10h 32m
Length of Day
9h 33m
Waning Crescent, 7% of the Moon is Illuminated
Dec 19
Waning Crescent
Dec 21
New
Dec 28
First Quarter
Jan 4
Full
Jan 13
Last Quarter

Hourly Weather History & Observations

Time (CST) Temp. Windchill Dew Point Humidity Pressure Visibility Wind Dir Wind Speed Gust Speed Precip Events Conditions
12:53 AM 30.9 °F - 28.0 °F 89% 30.28 in 6.0 mi Calm Calm - N/A   Overcast
1:53 AM 32.0 °F 28.7 °F 28.0 °F 85% 30.27 in 6.0 mi NNE 3.5 mph - N/A   Overcast
2:53 AM 30.9 °F 27.5 °F 28.0 °F 89% 30.26 in 6.0 mi North 3.5 mph - N/A   Overcast
3:53 AM 30.9 °F 26.2 °F 28.0 °F 89% 30.25 in 6.0 mi North 4.6 mph - N/A   Overcast
4:53 AM 30.9 °F 26.2 °F 28.0 °F 89% 30.24 in 5.0 mi NE 4.6 mph - N/A   Overcast
5:30 AM 30.9 °F 26.2 °F 28.0 °F 89% 30.20 in 4.0 mi NNE 4.6 mph - N/A   Overcast
5:53 AM 30.9 °F 24.3 °F 28.0 °F 89% 30.23 in 5.0 mi NNE 6.9 mph - N/A   Overcast
6:53 AM 32.0 °F 27.5 °F 28.0 °F 85% 30.25 in 6.0 mi East 4.6 mph - N/A   Overcast
7:53 AM 32.0 °F 24.2 °F 28.0 °F 85% 30.29 in 5.0 mi SE 9.2 mph - N/A   Overcast
8:53 AM 32.0 °F 28.7 °F 28.9 °F 88% 30.29 in 5.0 mi SSE 3.5 mph - N/A   Overcast
9:53 AM 32.0 °F 26.4 °F 28.9 °F 88% 30.30 in 5.0 mi SSE 5.8 mph - N/A   Overcast
10:53 AM 33.1 °F - 28.9 °F 85% 30.29 in 5.0 mi Calm Calm - N/A   Overcast
11:53 AM 34.0 °F - 30.0 °F 85% 30.27 in 6.0 mi Calm Calm - N/A   Overcast
12:19 PM 34.0 °F - 30.0 °F 85% 30.23 in 7.0 mi Calm Calm - N/A   Overcast
12:53 PM 35.1 °F 32.2 °F 30.9 °F 85% 30.25 in 7.0 mi South 3.5 mph - N/A   Overcast
1:53 PM 35.1 °F 32.2 °F 30.9 °F 85% 30.22 in 7.0 mi South 3.5 mph - N/A   Overcast
2:36 PM 36.0 °F 32.1 °F 30.9 °F 82% 30.18 in 7.0 mi SSW 4.6 mph - N/A   Overcast
2:53 PM 37.0 °F 34.5 °F 32.0 °F 82% 30.21 in 8.0 mi SW 3.5 mph - N/A   Overcast
3:16 PM 37.0 °F 34.5 °F 32.0 °F 82% 30.18 in 8.0 mi SW 3.5 mph - N/A   Overcast
3:53 PM 37.0 °F 33.3 °F 32.0 °F 82% 30.21 in 8.0 mi South 4.6 mph - N/A   Overcast
4:53 PM 37.4 °F 32.8 °F 32.0 °F 81% 30.17 in 7.0 mi South 5.8 mph - N/A   Overcast
5:00 PM 37.0 °F 32.4 °F 32.0 °F 82% 30.17 in 7.0 mi South 5.8 mph - N/A   Overcast
5:53 PM 37.0 °F 32.4 °F 33.1 °F 86% 30.21 in 7.0 mi South 5.8 mph - N/A   Overcast
6:53 PM 37.0 °F 31.6 °F 33.1 °F 86% 30.22 in 7.0 mi South 6.9 mph - N/A   Overcast
7:53 PM 37.0 °F 31.6 °F 33.1 °F 86% 30.20 in 7.0 mi South 6.9 mph - N/A   Overcast
8:53 PM 37.9 °F 32.1 °F 33.1 °F 83% 30.21 in 8.0 mi South 8.1 mph - N/A   Overcast
9:53 PM 37.9 °F 32.7 °F 34.0 °F 86% 30.20 in 8.0 mi South 6.9 mph - N/A   Overcast
10:53 PM 37.9 °F 32.1 °F 34.0 °F 86% 30.19 in 8.0 mi South 8.1 mph - N/A   Overcast
11:53 PM 37.9 °F 32.7 °F 34.0 °F 86% 30.21 in 8.0 mi South 6.9 mph - N/A   Overcast